SCP
0 0 0 0 0 0 0 0 0 0 0 0 0 0 0 0 0 0 0 0 0 0 0 0 0 0 0 0 0 0 0 0 0 0 0 0 0 0 0 0 0 0 0 0
0 0 0 0 0 0 0 0 0 0 0 0 0 0 0 0 0 0 0 0 0 0 0 0 0 0 0 0 0 0 0 0 0 0 0 0 0 0 0 0 0 0 0 0
0 0 0 0 0 0 0 0 0 0 0 0 0 0 0 0 0 0 0 0 0 0 0 0 0 0 0 0 0 0 0 0 0 0 0 0 0 0 0 0 0 0 0 0
0 0 0 0 0 0 0 0 0 0 0 0 0 0 0 0 0 0 0 0 0 0 0 0 0 0 0 0 0 0 0 0 0 0 0 0 0 0 0 0 0 0 0 0
0 0 0 0 0 0 0 0 0 0 0 0 0 0 0 0 0 0 0 0 0 0 0 0 0 0 0 0 0 0 0 0 0 0 0 0 0 0 0 0 0 0 0 0
0 0 0 0 0 0 0 0 0 0 0 0 0 0 0 0 0 0 0 0 0 0 0 0 0 0 0 0 0 0 0 0 0 0 0 0 0 0 0 0 0 0 0 0
0 0 0 0 0 0 0 0 0 0 0 0 0 0 0 0 0 0 0 0 0 0 0 0 0 0 0 0 0 0 0 0 0 0 0 0 0 0 0 0 0 0 0 0
0 0 0 0 0 0 0 0 0 0 0 0 0 0 0 0 0 0 0 0 0 0 0 0 0 0 0 0 0 0 0 0 0 0 0 0 0 0 0 0 0 0 0 0
0 0 0 0 0 0 0 0 0 0 0 0 0 0 0 0 0 0 0 0 0 0 0 0 0 0 0 0 0 0 0 0 0 0 0 0 0 0 0 0 0 0 0 0
0 0 0 0 0 0 0 0 0 0 0 0 0 0 0 0 0 0 0 0 0 0 0 0 0 0 0 0 0 0 0 0 0 0 0 0 0 0 0 0 0 0 0 0
0 0 0 0 0 0 0 0 0 0 0 0 0 0 0 0 0 0 0 0 0 0 0 0 0 0 0 0 0 0 0 0 0 0 0 0 0 0 0 0 0 0 0 0
0 0 0 0 0 0 0 0 0 0 0 0 0 0 0 0 0 0 0 0 0 0 0 0 0 0 0 0 0 0 0 0 0 0 0 0 0 0 0 0 0 0 0 0
0 0 0 0 0 0 0 0 0 0 0 0 0 0 0 0 0 0 0 0 0 0 0 0 0 0 0 0 0 0 0 0 0 0 0 0 0 0 0 0 0 0 0 0
0 0 0 0 0 0 0 0 0 0 0 0 0 0 0 0 0 0 0 0 0 0 0 0 0 0 0 0 0 0 0 0 0 0 0 0 0 0 0 0 0 0 0 0
0 0 0 0 0 0 0 0 0 0 0 0 0 0 0 0 0 0 0 0 0 0 0 0 0 0 0 0 0 0 0 0 0 0 0 0 0 0 0 0 0 0 0 0
0 0 0 0 0 0 0 0 0 0 0 0 0 0 0 0 0 0 0 0 0 0 0 0 0 0 0 0 0 0 0 0 0 0 0 0 0 0 0 0 0 0 0 0
0 0 0 0 0 0 0 0 0 0 0 0 0 0 0 0 0 0 0 0 0 0 0 0 0 0 0 0 0 0 0 0 0 0 0 0 0 0 0 0 0 0 0 0
0 0 0 0 0 0 0 0 0 0 0 0 0 0 0 0 0 0 0 0 0 0 0 0 0 0 0 0 0 0 0 0 0 0 0 0 0 0 0 0 0 0 0 0
0 0 0 0 0 0 0 0 0 0 0 0 0 0 0 0 0 0 0 0 0 0 0 0 0 0 0 0 0 0 0 0 0 0 0 0 0 0 0 0 0 0 0 0
0 0 0 0 0 0 0 0 0 0 0 0 0 0 0 0 0 0 0 0 0 0 0 0 0 0 0 0 0 0 0 0 0 0 0 0 0 0 0 0 0 0 0 0
0 0 0 0 0 0 0 0 0 0 0 0 0 0 0 0 0 0 0 0 0 0 0 0 0 0 0 0 0 0 0 0 0 0 0 0 0 0 0 0 0 0 0 0
0 0 0 0 0 0 0 0 0 0 0 0 0 0 0 0 0 0 0 0 0 0 0 0 0 0 0 0 0 0 0 0 0 0 0 0 0 0 0 0 0 0 0 0
0 0 0 0 0 0 0 0 0 0 0 0 0 0 0 0 0 0 0 0 0 0 0 0 0 0 0 0 0 0 0 0 0 0 0 0 0 0 0 0 0 0 0 0
-0 0 0 0 0 0 0 0 0 0 0 0 0 0 0 0 0 0 0 0 0 0 0 0 0 0 0 0 0 0 0 0 0 0 0 0 0 0 0 0 0 0 0 0
-0 0 0 0 0 0 0 -0 -0 0 0 0 0 0 0 0 0 0 0 0 0 0 0 0 0 0 0 0 0 0 0 0 0 0 0 0 0 0 0 0 0 0 0 0
0 0 0 0 0 0 0 0 0 0 0 0 0 0 0 0 0 0 0 0 0 0 0 0 0 0 0 0 0 0 0 0 0 0 0 0 0 0 0 0 0 0 0 0
Wind_Speed
7 7 11 13 15 12 9 10 11 8 4 8 11 12 10 8 7 7 6 7 7 7 6 7 7 7 7 7 7 7 7 6 5 4 3 3 3 2 2 2 3 3 3 3
7 13 13 11 11 13 13 12 11 6 5 6 8 11 9 9 9 7 7 7 7 6 6 7 7 7 7 7 7 7 7 6 6 4 4 3 3 2 2 2 3 3 4 3
12 8 7 10 11 13 14 13 11 8 4 6 5 9 10 8 8 8 7 6 6 7 7 7 7 7 7 7 7 7 7 6 6 5 4 3 3 2 2 2 2 3 4 4
9 9 9 10 12 11 12 10 10 8 5 6 6 6 7 7 8 8 7 6 6 5 6 6 6 7 7 6 6 6 7 6 5 6 5 6 5 4 3 3 3 3 4 4
7 5 8 11 10 10 7 4 8 9 7 7 7 6 6 7 8 9 8 7 6 5 5 6 6 6 6 6 6 6 7 6 6 6 6 6 4 3 3 3 4 4 3 4
10 6 5 6 7 6 4 4 6 7 4 9 11 9 6 6 8 7 7 7 6 6 5 5 5 5 5 5 6 6 7 7 7 6 6 6 6 5 5 5 4 4 3 3
6 6 4 2 3 4 5 4 4 5 7 9 8 8 6 2 3 5 6 6 6 6 5 5 5 5 5 6 6 6 7 7 7 7 6 6 6 6 6 6 5 4 3 3
5 5 4 2 4 4 8 8 6 6 6 3 5 8 3 2 3 3 4 4 4 4 4 4 5 5 5 6 6 6 6 7 7 7 6 5 5 4 4 5 5 5 4 4
5 5 3 3 3 4 5 7 5 3 3 3 5 4 3 3 3 3 3 4 3 3 3 4 4 5 5 5 5 5 5 6 6 6 6 5 5 4 4 4 4 4 3 3
5 6 5 4 3 4 4 2 2 4 5 5 5 7 4 4 3 3 4 4 2 2 3 3 3 4 4 4 4 4 4 5 5 5 5 5 5 4 4 4 4 4 4 4
5 4 4 3 3 3 2 3 4 4 4 3 3 1 2 4 4 4 3 3 3 3 3 2 2 3 4 4 4 3 3 4 4 4 4 4 4 4 4 4 4 4 4 5
4 4 5 7 4 2 2 3 3 3 4 3 2 2 4 6 5 4 3 3 3 3 3 3 3 3 3 3 3 2 2 2 3 3 4 4 4 4 4 4 4 4 4 4
4 3 4 3 1 2 2 3 4 4 3 3 3 2 5 8 8 7 6 4 4 4 3 3 3 3 2 2 2 1 1 1 2 2 3 3 3 4 4 4 4 4 4 4
5 3 4 4 4 3 4 5 5 3 3 4 5 3 5 7 7 7 6 5 4 3 3 3 3 2 2 2 2 1 1 1 1 2 3 3 3 4 4 3 4 4 4 4
3 4 5 7 7 5 4 5 5 5 4 4 4 3 5 5 4 4 5 5 4 4 4 3 3 3 2 2 2 1 1 0 1 1 2 3 3 3 3 3 3 4 4 4
2 4 5 7 6 4 4 5 5 4 5 4 4 4 5 5 5 5 5 5 5 5 5 5 4 4 3 2 2 2 2 1 1 2 2 2 2 3 3 3 3 3 3 4
3 3 3 5 6 4 4 3 3 2 2 2 3 4 6 7 6 4 5 5 5 6 5 5 5 4 3 2 2 2 2 1 0 1 1 1 2 2 2 2 3 3 3 3
4 4 3 4 3 3 0 3 3 2 4 5 5 6 6 6 5 4 6 6 6 6 6 5 5 5 4 3 3 2 2 1 1 1 1 1 1 2 2 2 2 2 2 3
4 3 3 2 3 3 2 6 6 4 2 6 6 7 8 8 4 3 7 6 5 5 4 4 4 4 4 4 3 3 2 2 2 1 1 0 1 2 2 2 2 2 2 2
2 2 2 2 3 2 3 8 9 4 1 7 8 6 6 7 3 3 7 7 7 6 5 5 5 5 5 5 4 3 3 3 2 2 2 1 0 1 2 2 1 1 1 2
3 2 2 3 2 1 5 10 6 2 5 8 7 5 5 4 3 4 5 6 6 6 6 6 5 5 5 5 4 3 3 3 3 2 2 2 1 0 1 1 0 1 1 2
3 3 2 2 2 3 8 7 4 4 5 6 6 5 5 5 5 5 5 6 6 6 6 6 5 5 5 5 5 4 4 3 2 2 2 2 2 1 1 1 0 0 1 2
2 2 2 1 1 2 5 4 5 5 5 6 6 6 5 5 5 5 5 5 6 6 6 6 5 5 6 6 5 4 4 4 3 3 2 2 2 2 1 1 0 0 1 1
3 4 2 1 2 4 5 6 7 6 6 6 6 5 5 4 5 5 5 5 5 6 5 5 6 6 6 6 6 5 5 4 3 3 2 2 2 2 2 1 1 1 0 0
3 4 3 2 3 5 5 8 8 7 7 6 6 6 5 5 5 5 4 5 5 5 5 5 5 5 6 7 7 7 6 5 4 3 2 2 2 1 1 2 2 1 1 0
3 3 3 2 4 4 6 7 8 7 7 7 6 6 6 5 5 5 5 5 5 5 5 5 5 6 6 6 7 7 7 5 4 3 3 2 2 1 1 2 3 5 4 4
Wind_Direction
204 218 219 217 220 238 252 247 249 247 204 212 226 236 235 225 220 218 210 201 195 197 181 171 166 160 156 158 160 164 163 162 156 154 156 154 158 153 142 144 147 152 145 142
226 232 234 235 234 240 249 253 257 254 218 220 242 251 240 223 216 211 208 207 196 186 176 171 165 160 164 166 166 166 166 163 163 162 159 154 153 157 154 150 149 154 150 152
238 242 237 236 239 236 239 239 248 255 256 240 247 258 233 215 210 210 207 205 192 181 176 173 168 167 165 169 171 171 168 165 164 155 148 146 136 137 143 150 158 163 158 155
252 252 247 241 239 237 243 239 246 251 244 247 209 252 233 206 203 205 202 194 188 180 174 170 169 168 168 170 167 166 164 165 164 159 161 163 163 169 175 164 164 164 162 157
253 249 243 242 240 237 247 258 246 246 239 254 228 236 248 196 206 202 195 189 181 174 172 168 167 169 168 165 165 167 162 166 166 166 169 170 169 169 155 152 160 163 163 165
266 272 270 265 255 242 239 256 248 239 232 239 220 217 250 207 202 186 179 175 173 170 168 160 155 152 158 159 161 165 165 171 172 173 173 175 173 168 163 167 169 171 167 170
271 247 252 288 271 221 207 194 208 208 213 233 207 212 229 203 168 165 160 160 157 154 157 160 157 156 156 159 164 170 170 175 176 176 177 180 179 176 175 173 173 169 170 171
284 259 207 212 229 227 218 208 205 208 213 229 198 212 200 148 104 101 106 119 119 135 150 155 154 154 157 160 165 172 177 174 176 178 181 179 176 177 178 177 172 176 176 176
297 288 300 258 250 226 216 222 242 271 271 245 218 193 185 132 111 120 122 115 120 134 137 138 138 145 149 155 161 171 176 171 175 177 174 177 176 176 178 175 167 167 165 170
303 293 297 304 279 251 255 258 227 219 217 236 229 200 191 164 155 141 134 130 112 101 105 111 122 134 142 150 152 163 172 172 174 174 176 178 179 180 178 171 171 168 167 167
316 285 291 303 239 244 239 239 238 236 230 223 233 211 54 135 138 136 128 125 115 92 82 84 89 103 120 125 135 145 163 163 166 172 174 175 178 180 175 171 174 169 167 169
323 295 273 269 278 299 249 236 234 241 256 244 246 262 20 60 65 89 90 74 88 87 71 67 77 80 83 101 115 134 142 152 164 169 171 174 174 175 177 177 178 172 172 172
319 293 295 295 318 17 335 298 278 274 276 264 236 246 23 42 40 42 45 48 54 70 63 56 64 71 73 83 95 112 118 137 150 162 169 172 175 178 183 180 176 174 173 174
315 265 251 266 301 316 297 296 291 272 240 257 252 275 342 18 17 15 20 27 45 54 58 52 44 47 51 56 62 75 79 112 149 156 167 177 182 183 184 178 176 176 175 177
329 274 279 287 293 298 302 302 291 269 259 250 279 285 320 346 352 1 14 20 33 38 38 40 36 32 37 37 28 20 27 65 169 170 171 182 180 172 169 174 177 175 176 183
321 283 300 286 279 292 309 326 307 285 283 275 292 312 343 349 3 18 21 25 26 23 22 22 22 21 17 17 5 354 344 299 174 170 180 171 158 154 161 171 171 171 176 180
273 273 283 277 288 297 286 319 319 293 305 320 303 315 343 355 354 4 19 27 26 18 13 14 5 3 358 348 345 331 322 332 71 157 155 142 146 157 162 163 164 174 180 180
255 270 261 270 299 246 171 29 356 351 37 20 8 4 356 339 333 35 41 31 19 9 1 357 355 353 349 348 355 349 341 11 40 58 102 124 142 161 158 160 173 182 184 190
242 253 268 268 248 250 9 3 344 318 328 16 359 351 350 348 356 47 27 18 8 357 353 352 352 348 349 356 3 4 8 23 35 30 39 115 166 168 168 180 191 195 188 195
286 249 250 276 275 272 339 329 323 309 282 7 355 343 339 350 351 335 0 2 1 2 1 360 1 3 3 357 1 16 19 22 9 357 351 352 136 165 185 197 204 205 195 202
334 304 255 262 260 334 341 328 341 14 307 332 335 334 339 340 310 322 351 359 2 4 4 7 11 8 -0 357 5 21 25 6 346 351 358 12 55 124 175 167 163 197 206 199
338 328 319 300 279 300 352 2 20 325 321 332 340 345 341 336 344 360 5 4 5 6 7 9 12 7 2 6 15 21 12 353 357 16 23 20 21 35 56 89 78 206 205 201
15 344 306 302 281 336 353 0 347 337 335 342 344 344 345 350 358 0 6 9 7 9 10 11 14 10 8 8 14 16 358 357 16 35 33 26 24 29 42 99 102 166 183 186
355 342 328 324 344 345 357 4 359 353 349 349 351 352 1 5 4 4 8 8 8 9 14 15 18 17 9 5 12 14 3 4 25 34 27 23 33 37 35 46 63 75 96 177
335 333 329 311 332 343 5 6 356 354 359 360 1 3 7 11 8 5 6 8 11 15 16 19 20 18 11 8 12 8 8 14 29 31 22 21 34 58 50 43 38 28 37 182
2 343 333 317 334 324 320 337 345 351 353 356 359 3 8 12 10 9 9 10 12 17 21 21 21 19 14 14 13 6 7 13 24 32 23 20 22 34 54 57 35 29 26 25